Location: Mt. Chestnut Observatory
(40.9038°N, 79.9956°W)
Time: 12:05:19
(UTC-04:00)

Daily predictions for brighter satellites

Satellite Brightness Start Highest point End
(mag) Time Altitude Azimuth Time Altitude Azimuth Time Altitude Azimuth
Cosmos 1939 Rocket 3.7 21:20:16 10° S 21:24:16 53° W 21:28:13 10° NNW
Resurs 01 Rocket 1.8 21:24:08 10° S 21:28:32 77° WSW 21:33:00 10° NNW
Cosmos 1048 Rocket 4.0 21:23:22 10° SSW 21:28:39 77° ESE 21:34:02 10° NNE
Cosmos 1726 4.2 21:27:54 10° NE 21:29:51 14° ENE 21:31:48 10° ESE
ERS-2 2.1 21:27:42 10° SSE 21:31:22 89° E 21:35:03 10° NNW
USA 186 3.6 21:28:49 10° SSW 21:31:40 29° W 21:34:22 10° NW
OAO 3 Rocket 3.8 21:27:41 10° WSW 21:32:22 42° S 21:37:01 10° ESE
Cosmos 921 Rocket 4.2 21:28:29 10° N 21:32:29 31° ENE 21:36:29 10° SE
Cosmos 1825 Rocket 3.6 21:34:25 10° S 21:38:53 85° E 21:43:21 10° N
SL-8 R/B 3.7 21:35:06 10° SW 21:39:55 76° SSE 21:44:46 10° ENE
Cosmos 2278 Rocket 3.7 21:37:59 10° SE 21:41:36 18° E 21:45:13 10° ENE
ARGOS 3.5 21:37:00 10° SSE 21:42:15 53° ENE 21:47:32 10° N
Cosmos 1315 Rocket 2.8 21:39:42 10° S 21:43:45 87° E 21:47:54 10° N
MetOp-A 4.4 21:43:12 10° SSE 21:48:27 57° ENE 21:53:41 10° N
Spot 2 Rocket 3.8 21:44:21 10° S 21:49:22 69° WSW 21:54:26 10° NNW
Cosmos 1844 Rocket 2.7 21:52:16 10° SSW 21:57:55 79° ESE 22:03:36 10° NNE
COSMOS 2406 3.7 21:54:06 10° NNW 21:59:41 48° ENE 22:04:22 14° SE
Cosmos 1844 3.7 21:58:38 10° SSW 22:04:16 68° ESE 22:10:00 10° NNE
SL-08 RB Rocket 3.8 22:01:15 12° SSE 22:05:29 66° ENE 22:10:09 10° N
ATLAS 3B R/B 3.0 22:01:01 10° NNW 22:07:30 52° NE 22:12:52 15° ESE
Cosmos 1238 Rocket 2.7 22:05:11 10° SSW 22:08:04 57° W 22:11:06 10° N
KORONAS-FOTON 4.2 22:05:23 12° SSE 22:08:43 46° E 22:12:29 10° NNE
Cosmos 2285 Rocket 4.4 22:03:04 10° SSW 22:09:21 70° WNW 22:15:40 10° NNE
Cosmos 1110 Rocket 4.0 22:04:12 10° NNW 22:09:23 70° ENE 22:13:32 16° SSE
SPOT 5 3.9 22:06:25 15° SE 22:10:08 36° ENE 22:14:57 10° N
USA 238 DEB 3.9 22:04:35 10° NNW 22:11:45 74° NE 22:17:40 16° SE
USA 238 3.9 22:04:41 10° NNW 22:11:51 73° NE 22:17:45 17° SE
Cosmos 2084 3.7 22:09:33 10° NW 22:13:17 52° WSW 22:16:07 16° SSE
ATLAS 5 CENTAUR R/B 3.0 22:14:23 18° SE 22:15:12 18° ESE 22:18:25 10° ENE
Cosmos 1346 Rocket 3.0 22:11:24 10° NNW 22:15:25 73° W 22:19:03 12° S
Lacrosse 5 3.4 22:10:52 10° WSW 22:15:37 40° NW 22:20:25 10° NNE
Cosmos-2242 3.2 22:12:51 10° NNW 22:17:15 75° W 22:21:20 12° S
Iridium 18 4.4 22:18:11 15° S 22:20:52 82° E 22:24:44 10° N
S3M 4.2 22:15:36 10° S 22:21:42 59° E 22:27:58 10° NNE
Cosmos 1331 Rocket 4.0 22:16:34 10° NNW 22:21:49 80° ENE 22:25:39 19° SSE
Meteor 1-24 Rocket 4.3 22:16:02 10° SSW 22:22:01 65° WNW 22:28:01 10° N
Cosmos 494 Rocket 4.0 22:18:04 10° SSW 22:23:19 86° WNW 22:28:38 10° NNE
NOSS 3-2 (A) 4.3 22:15:52 10° NNW 22:23:20 61° NE 22:29:42 18° SE
H-2A R/B 2.2 22:18:45 13° S 22:23:32 82° WSW 22:28:59 10° NNW
SPOT 1/Viking Rocket 4.0 22:20:08 19° SE 22:23:34 46° ENE 22:28:29 10° N
Cosmos 2082 Rocket 4.0 22:24:53 10° N 22:29:06 21° NE 22:33:00 11° E
Cosmos 1833 Rocket 4.3 22:25:34 10° N 22:29:57 23° NE 22:33:38 13° E
Helios 1A 3.4 22:28:25 23° SE 22:30:41 47° ENE 22:34:45 10° N
Cosmos 1626 3.8 22:31:41 17° E 22:32:02 18° E 22:34:35 10° NE
Helios 1B rocket 3.3 22:28:43 10° NE 22:32:23 31° E 22:33:41 25° SE
Cosmos 1908 3.5 22:31:35 10° NNW 22:35:25 64° W 22:38:07 18° S
Centaur D-1AR AC-36 4.4 22:31:12 10° WSW 22:35:40 13° SW 22:38:25 10° SSW
Cosmos 1842 Rocket 3.6 22:32:33 10° N 22:36:53 63° E 22:39:11 26° SSE
CZ-2C R/B 4.0 22:34:27 10° NE 22:38:22 20° E 22:39:34 19° ESE
ATLAS 2AS CENTAUR R/B 3.7 22:30:38 10° SW 22:38:23 61° NW 22:46:27 10° NNE
Cosmos 1340 2.6 22:36:55 10° N 22:40:43 86° E 22:42:34 29° SSE
CSL-04 DEB 4.4 22:40:29 25° S 22:42:43 76° WSW 22:46:40 10° NNW
Cosmos 1553 Rocket 4.0 22:38:15 10° S 22:44:19 81° W 22:50:26 10° N
Landsat 7 4.0 22:42:27 27° SE 22:44:57 59° ENE 22:49:38 10° N
NOSS 3-2 (C) 4.3 22:41:42 10° NNW 22:49:14 64° NE 22:54:47 22° SE
ERS-1 Rocket 3.3 22:46:45 19° S 22:50:20 62° WSW 22:55:20 10° NNW
Cosmos 1302 Rocket 4.0 22:45:29 10° NNW 22:50:48 80° ENE 22:53:36 29° SSE
DMSP B5D2-2 4.1 22:46:30 10° NNE 22:51:45 82° WNW 22:56:34 12° SSW
Cosmos 1674 4.4 22:51:18 10° SW 22:54:43 32° WNW 22:58:12 10° NNW
Cosmos 1455 4.3 22:56:36 10° NE 22:58:42 14° ENE 22:59:05 14° ENE
Cosmos 1300 2.6 22:56:33 10° N 23:00:23 74° E 23:01:28 44° SSE
Meteor 2-10 4.5 22:55:49 10° NNW 23:01:13 64° W 23:04:53 22° S
Cosmos 2251 Rocket 3.6 22:57:08 10° SSW 23:02:29 78° WNW 23:07:49 10° NNE
Cosmos 1386 Rocket 4.4 22:57:48 10° N 23:03:55 89° E 23:07:22 27° S
Terra 2.0 23:02:30 34° SE 23:04:23 60° ENE 23:09:05 10° N
Cosmos 1726 3.4 23:01:48 10° NNW 23:05:17 36° W 23:07:13 21° SW
Cosmos 2315 Rocket 4.2 23:02:11 28° SSE 23:05:18 53° E 23:11:28 10° NNE
RESURS DK-1 3.5 23:06:04 27° E 23:06:04 27° E 23:09:06 10° NE
Cosmos 2221 2.5 23:02:32 10° N 23:06:51 69° E 23:08:10 42° SSE
Okean 3 Rocket 4.0 23:06:52 37° ESE 23:07:42 41° E 23:11:50 10° NNE
H-2A R/B 4.0 23:09:34 26° SSE 23:11:37 28° SE 23:34:02 10° E
NOSS 2-2 (E) 3.2 23:11:46 36° SSW 23:13:16 74° ESE 23:17:35 10° NE
CENTAUR R/B 3.7 23:06:52 10° NNW 23:14:33 51° NE 23:20:13 21° ESE
OAO 3 Rocket 4.1 23:11:07 10° WSW 23:15:26 30° SSW 23:15:31 30° SSW
Meteor 1-29 2.7 23:12:03 10° NNE 23:15:27 77° ESE 23:15:42 70° SSE
NOSS 3-4 (A) 3.4 23:09:27 10° SW 23:15:37 87° NW 23:22:03 10° NE
NOSS 3-4 (C) 3.4 23:09:32 10° SSW 23:15:41 88° NW 23:22:08 10° NE
Cosmos 1328 3.7 23:21:27 59° SE 23:22:00 68° E 23:25:56 10° NNE
CZ-2C R/B 3.3 23:19:33 35° SSE 23:22:06 77° ENE 23:27:52 10° N
Cosmos 1461 3.8 23:17:53 10° SW 23:22:26 56° NW 23:27:10 10° NNE
Cosmos 2278 Rocket 2.6 23:19:27 10° SW 23:25:04 64° WNW 23:30:44 10° NNE
ATLAS 3B CENTAUR R/B 3.9 23:19:42 10° WSW 23:33:23 33° S 23:35:03 31° SSE
Spot 4 4.5 23:33:05 37° ESE 23:34:17 45° ENE 23:38:55 10° N
IGS 5A 4.0 23:33:19 40° SW 23:34:22 51° W 23:38:26 10° NNW
APEX 4.5 23:31:52 10° NW 23:34:46 28° WSW 23:35:06 27° WSW
Cosmos 407 Rocket 4.4 23:35:41 30° E 23:35:41 30° E 23:40:08 10° NE
Nimbus 7 Rocket 4.4 23:32:05 10° NNE 23:38:09 90° SSE 23:41:14 31° SSW
NOSS 2-2 (D) 3.7 23:42:34 32° WSW 23:44:11 64° NW 23:48:30 10° NNE
CARTOSAT-1 4.4 23:43:53 34° SW 23:45:00 41° W 23:49:07 10° NNW
Cosmos 1190 Rocket 4.4 23:49:20 41° ESE 23:49:34 41° ESE 23:54:27 10° NNE
Cosmos 405 Rocket 4.1 23:48:52 10° NNE 23:51:43 27° ENE 23:51:43 27° ENE
Cosmos 2369 Rocket 4.0 23:54:56 17° E 23:54:56 17° E 23:57:50 10° ENE
